Wind_Speed
56 55 56 59 63 65 64 62 62 61 64 68 72 75 79 81 90 99 113 119 122 122 121 121 117 118 116 116 116 106 109 110 108 106 111 116 116 115 117 118 120 125 125
43 45 48 50 51 50 50 51 50 51 54 59 63 65 67 68 72 76 93 100 106 111 115 119 123 120 116 120 122 118 115 105 108 122 118 118 122 121 118 120 122 124 130
33 36 39 42 42 41 43 47 45 45 47 50 55 59 60 66 73 73 60 88 93 102 104 115 119 117 117 118 120 126 122 120 114 113 124 123 122 122 123 126 130 123 133
29 32 36 38 39 39 38 41 43 43 45 49 52 52 57 61 63 63 68 70 79 84 88 104 110 114 119 123 126 127 129 132 134 128 121 124 126 129 132 135 135 141 144
25 28 31 33 36 38 40 40 41 41 41 42 45 46 50 51 50 59 61 69 80 80 83 88 92 109 117 120 125 126 130 132 133 138 136 132 129 137 138 136 140 142 148
24 26 28 30 32 35 36 38 39 40 42 44 46 57 61 59 64 62 62 59 66 68 72 74 78 92 104 117 123 126 132 137 139 139 138 138 139 144 141 144 147 151 158
23 22 26 28 30 31 33 32 33 38 37 39 50 53 60 59 60 60 62 61 61 62 72 76 80 82 83 93 105 118 124 129 134 136 142 144 148 148 148 155 162 152 150
29 29 29 31 30 31 30 30 40 41 43 42 59 64 69 66 66 59 60 54 62 70 68 71 80 87 92 94 98 104 110 116 123 135 142 145 150 146 143 150 157 159 168
28 25 32 33 30 28 31 27 33 43 46 47 53 63 64 64 67 66 63 61 60 64 70 79 84 88 92 97 104 109 114 119 125 131 139 146 151 155 158 163 168 166 173
19 18 20 23 20 23 28 28 28 40 43 49 52 53 62 66 66 68 68 66 65 70 75 80 85 89 96 105 115 121 123 126 131 136 141 147 153 158 163 169 174 177 179
11 15 13 13 18 21 21 21 20 20 21 29 42 51 57 62 63 71 75 78 82 85 88 94 98 101 105 108 110 111 110 112 115 119 124 129 135 141 145 146 144 142 136
11 11 10 8 8 9 14 15 16 16 21 27 33 38 42 46 51 55 64 68 72 75 76 79 83 85 86 87 88 91 93 96 99 101 106 110 114 117 120 121 122 120 119
4 2 1 2 5 8 11 14 18 22 24 26 30 34 37 40 44 48 53 57 62 66 69 72 74 75 77 79 82 85 87 88 90 93 98 103 108 112 114 114 115 114 117
6 4 5 7 10 12 16 19 22 24 27 29 31 34 38 41 46 49 53 57 60 63 65 68 71 72 73 74 78 80 82 83 84 89 95 100 104 104 105 106 109 114 113
9 8 7 8 10 13 16 19 21 24 27 29 32 35 39 42 45 48 51 54 57 59 62 65 67 70 72 74 76 78 81 84 87 91 96 98 97 99 104 105 98 96 97
20 19 18 18 18 18 19 21 22 24 27 29 30 33 36 40 43 45 47 51 55 58 63 67 69 72 75 78 80 83 84 85 88 93 94 92 95 94 91 92 92 91 90
18 18 19 20 21 23 23 23 25 26 30 32 35 37 40 43 45 46 49 52 55 60 65 69 70 70 74 78 81 83 84 86 89 91 90 92 88 86 88 87 87 87 87
20 21 22 23 25 24 25 28 31 32 33 36 39 41 43 45 47 47 49 52 54 57 61 65 66 68 72 75 78 80 82 85 87 86 88 85 84 84 82 80 83 81 77
29 28 28 28 28 28 30 32 34 36 38 40 42 43 46 48 50 51 53 55 57 60 61 66 66 68 72 75 78 79 81 84 84 85 84 83 83 80 76 79 79 73 66
30 32 32 32 33 36 39 42 42 42 44 45 47 48 51 55 56 56 58 60 61 62 63 65 69 71 73 76 78 78 81 84 83 84 82 82 82 78 75 78 72 64 63
37 37 40 41 39 41 42 42 43 44 46 48 49 50 51 55 57 59 60 62 63 65 65 66 69 72 74 77 76 78 82 83 84 82 79 80 78 74 76 72 64 62 66
40 43 46 48 45 44 45 49 51 49 47 49 50 51 50 51 57 61 63 64 67 67 68 65 67 71 74 75 75 80 82 83 83 78 77 77 75 75 72 65 63 66 72
47 49 51 52 53 51 50 52 52 51 50 51 52 55 57 57 58 61 65 69 70 69 68 67 68 68 70 74 79 81 81 81 78 75 73 74 74 72 66 62 66 71 78
55 58 56 54 55 56 55 55 55 53 53 54 57 61 63 64 66 67 68 67 67 65 65 64 65 68 74 79 81 82 81 78 75 73 71 71 72 67 61 65 71 77 83
59 60 63 64 58 58 60 57 57 56 55 57 59 62 65 67 69 68 69 69 67 65 64 65 69 74 79 81 82 82 79 75 73 70 69 69 66 60 62 67 75 82 87
64 68 72 69 63 64 64 62 60 59 59 62 63 65 66 69 69 68 68 67 66 64 65 70 74 78 81 82 82 79 75 73 71 69 69 66 60 62 66 71 78 81 83
Wind_Direction
201 207 211 213 216 218 221 223 226 227 228 229 230 231 231 234 232 229 230 231 234 235 234 235 238 239 244 245 246 248 253 259 259 260 263 265 266 267 269 270 272 274 275
203 207 210 211 210 213 217 220 223 226 227 226 227 228 229 228 226 228 231 234 236 233 235 236 237 239 243 246 247 247 253 256 258 260 263 265 267 268 271 272 273 273 274
199 202 203 202 203 209 214 215 220 223 225 225 225 225 224 220 223 226 234 238 234 235 238 239 239 240 242 245 248 249 247 250 258 260 261 262 264 267 268 268 272 271 271
190 196 198 201 205 209 212 214 218 222 221 221 223 220 219 215 222 230 233 238 237 238 243 241 241 243 245 247 250 252 251 251 253 257 261 262 262 266 269 270 269 269 272
197 200 203 207 209 211 212 215 218 218 218 219 216 209 206 200 203 219 227 237 237 243 242 245 247 245 245 247 249 254 252 253 255 257 259 260 263 265 268 268 268 270 271
190 194 197 200 202 204 205 207 210 210 212 207 207 204 194 197 205 216 225 238 238 241 245 247 250 251 249 250 252 254 256 256 256 258 261 265 264 261 263 265 268 269 269
163 168 169 172 180 184 186 188 192 191 183 189 192 195 200 201 211 224 231 236 238 244 244 248 249 254 256 258 259 257 259 260 261 262 265 267 268 270 272 271 271 273 274
136 137 142 143 149 151 155 162 174 182 186 195 193 196 205 213 214 226 231 241 245 243 245 247 250 253 255 258 260 261 263 264 265 264 264 266 269 273 275 276 275 277 278
133 133 138 140 141 146 149 150 177 190 196 200 202 206 211 218 224 228 235 243 245 248 252 253 254 254 256 257 260 262 263 264 266 267 266 268 269 271 274 276 276 280 279
105 113 139 148 153 160 169 176 192 199 205 211 214 216 221 223 231 236 241 250 254 254 258 261 262 264 264 265 265 265 267 268 270 271 271 271 271 273 273 274 276 277 279
134 148 144 160 171 180 194 205 212 214 217 224 229 236 241 241 244 245 244 249 253 257 261 263 264 266 268 269 272 274 275 276 277 277 277 278 278 278 279 280 282 283 284
110 110 114 129 174 209 224 233 240 246 251 252 252 250 249 247 249 251 252 256 258 260 264 266 268 272 274 275 277 278 279 279 281 282 282 282 282 282 284 285 286 287 288
23 21 318 261 255 253 261 264 263 262 260 260 257 257 260 262 263 265 265 267 268 269 271 273 274 275 277 279 280 280 282 283 283 284 286 286 286 286 287 288 289 290 290
28 352 312 289 281 280 277 275 275 275 273 271 272 272 272 272 272 272 272 272 273 275 277 279 281 282 282 282 281 281 281 283 284 285 288 289 290 291 291 290 290 291 292
5 353 330 305 284 273 272 273 274 276 278 280 281 280 278 277 277 279 280 282 283 283 282 281 281 282 283 284 283 283 284 286 288 290 292 293 294 294 293 293 294 293 293
5 354 344 335 324 314 307 301 300 300 299 297 297 295 291 287 286 286 287 285 285 287 286 285 286 287 288 289 289 288 288 289 291 294 295 295 296 295 295 297 297 296 297
351 346 343 338 330 318 312 309 307 307 306 302 298 296 294 292 290 288 287 286 286 287 287 288 287 288 288 288 288 288 290 293 296 298 298 299 298 297 298 300 300 300 301
339 333 330 326 319 313 311 306 305 305 303 299 296 294 293 291 289 288 289 288 287 287 289 289 289 289 290 291 291 291 293 296 299 301 302 302 301 301 302 303 302 303 302
327 324 322 321 320 315 310 306 306 307 306 304 304 304 298 295 294 292 291 290 291 290 291 292 292 292 292 294 294 294 296 300 303 305 306 305 305 305 307 306 307 305 300
333 329 326 320 319 315 313 312 309 308 306 305 305 305 303 300 299 297 296 295 294 293 293 294 294 293 293 296 297 298 301 305 308 310 310 308 307 308 310 309 309 303 305
329 327 321 315 318 316 316 314 311 309 309 311 311 312 310 306 305 306 305 302 299 297 296 296 296 296 297 299 301 303 306 309 312 313 312 309 309 311 312 311 307 307 311
324 326 327 323 320 316 313 314 314 311 311 314 316 315 314 312 313 312 311 310 306 303 300 299 299 299 301 303 305 307 310 313 314 315 312 310 311 314 313 310 311 313 315
316 321 320 319 321 319 314 313 314 313 313 315 315 315 313 313 313 313 313 312 311 310 306 304 303 304 305 307 309 311 313 316 316 314 311 311 313 314 313 313 315 317 316
317 316 313 311 314 315 315 312 309 309 310 314 315 314 312 312 312 313 314 314 312 309 307 308 308 308 309 310 312 314 317 317 316 313 314 314 315 315 315 317 316 316 317
313 314 314 311 309 311 312 309 306 305 309 311 312 313 313 313 312 312 314 314 313 312 311 310 310 311 312 313 315 317 317 317 315 314 315 316 315 314 315 317 320 319 317
310 307 309 309 307 308 309 308 306 308 309 307 307 309 311 312 312 312 313 313 311 309 310 312 313 313 314 315 316 317 317 317 315 316 317 318 317 317 319 320 317 316 318
Height
10258 10268 10278 10289 10300 10313 10325 10336 10345 10355 10365 10373 10381 10390 10401 10415 10432 10440 10448 10454 10461 10469 10471 10480 10482 10487 10490 10490 10495 10494 10489 10489 10483 10476 10474 10467 10466 10461 10458 10451 10446 10442 10437
10259 10268 10278 10288 10299 10309 10320 10331 10341 10348 10356 10363 10373 10382 10395 10408 10415 10424 10424 10438 10438 10448 10451 10457 10462 10466 10471 10468 10469 10474 10470 10463 10459 10457 10449 10444 10439 10436 10432 10427 10421 10416 10409
10260 10268 10277 10287 10297 10308 10317 10325 10333 10340 10346 10355 10363 10372 10384 10393 10400 10406 10413 10411 10419 10428 10434 10437 10443 10451 10448 10448 10448 10440 10449 10449 10437 10432 10427 10420 10414 10414 10409 10404 10401 10395 10385
10260 10266 10275 10284 10293 10302 10311 10319 10326 10332 10339 10346 10354 10365 10372 10380 10389 10393 10398 10399 10405 10413 10416 10416 10420 10426 10428 10422 10422 10424 10422 10421 10413 10411 10403 10397 10391 10389 10385 10379 10371 10363 10357
10262 10268 10275 10283 10292 10299 10306 10314 10321 10327 10335 10343 10349 10356 10363 10372 10380 10384 10388 10384 10395 10396 10400 10399 10400 10399 10400 10401 10400 10392 10396 10392 10391 10387 10379 10375 10372 10363 10359 10351 10343 10333 10323
10263 10268 10274 10281 10287 10294 10302 10309 10316 10321 10328 10335 10341 10346 10353 10362 10370 10371 10373 10377 10382 10386 10388 10387 10380 10378 10381 10380 10377 10371 10371 10366 10364 10360 10354 10349 10341 10332 10334 10318 10309 10303 10290
10266 10270 10274 10280 10285 10291 10299 10307 10312 10319 10324 10331 10339 10348 10353 10356 10359 10361 10363 10365 10370 10372 10372 10371 10369 10365 10363 10359 10356 10354 10348 10347 10341 10334 10329 10321 10310 10307 10301 10291 10281 10277 10266
10272 10274 10278 10282 10288 10294 10301 10307 10314 10319 10324 10328 10332 10337 10342 10345 10347 10350 10351 10353 10354 10355 10355 10356 10354 10350 10346 10341 10337 10333 10329 10321 10315 10308 10302 10294 10288 10281 10270 10263 10254 10239 10231
10281 10284 10285 10289 10295 10300 10304 10310 10314 10319 10322 10326 10330 10334 10336 10339 10340 10342 10341 10341 10339 10339 10338 10337 10335 10331 10327 10325 10319 10314 10308 10301 10292 10284 10275 10267 10261 10251 10240 10233 10221 10212 10201
10293 10293 10296 10298 10302 10305 10307 10309 10313 10318 10319 10322 10326 10329 10330 10330 10330 10332 10332 10331 10330 10328 10326 10322 10318 10315 10309 10304 10300 10297 10290 10282 10272 10261 10254 10246 10239 10225 10211 10202 10196 10187 10176
10302 10302 10303 10305 10306 10308 10310 10312 10314 10317 10320 10323 10326 10327 10327 10327 10327 10327 10326 10323 10320 10316 10311 10306 10300 10295 10291 10286 10281 10274 10265 10254 10244 10235 10226 10216 10202 10191 10179 10169 10158 10149 10139
10310 10310 10310 10310 10311 10312 10313 10314 10314 10315 10316 10316 10317 10317 10316 10315 10312 10310 10308 10304 10299 10295 10292 10286 10280 10275 10271 10264 10256 10248 10239 10229 10220 10211 10199 10186 10173 10158 10147 10137 10124 10114 10099
10311 10311 10310 10310 10311 10311 10311 10310 10310 10310 10310 10309 10308 10307 10305 10303 10301 10299 10296 10291 10285 10279 10273 10267 10262 10256 10248 10240 10231 10222 10214 10206 10196 10184 10171 10158 10145 10131 10117 10107 10091 10079 10062
10311 10310 10309 10308 10307 10307 10306 10305 10305 10304 10302 10301 10298 10296 10293 10289 10286 10282 10277 10272 10266 10260 10254 10247 10240 10233 10225 10216 10208 10200 10191 10183 10173 10161 10148 10132 10118 10103 10087 10075 10064 10048 10036
10310 10308 10307 10305 10303 10301 10300 10298 10296 10294 10292 10289 10287 10284 10280 10276 10272 10266 10260 10254 10248 10242 10235 10228 10221 10213 10205 10196 10186 10176 10167 10158 10147 10134 10120 10106 10091 10077 10058 10043 10033 10020 10004
10308 10306 10304 10302 10299 10297 10295 10294 10291 10288 10284 10280 10277 10273 10269 10264 10259 10252 10246 10239 10231 10223 10215 10207 10200 10192 10182 10171 10160 10149 10140 10131 10120 10107 10092 10079 10065 10047 10031 10014 10001 9987 9976
10306 10303 10300 10297 10294 10291 10289 10285 10281 10277 10274 10270 10266 10261 10255 10249 10243 10236 10230 10223 10215 10206 10196 10189 10181 10172 10161 10150 10139 10127 10115 10105 10093 10078 10063 10048 10034 10018 10003 9989 9972 9959 9946
10303 10299 10295 10291 10288 10284 10280 10276 10272 10268 10263 10259 10254 10248 10241 10235 10228 10221 10214 10205 10197 10189 10178 10168 10161 10152 10139 10127 10115 10104 10093 10081 10068 10053 10037 10020 10006 9993 9979 9964 9948 9937 9922
10298 10294 10290 10285 10280 10275 10270 10266 10260 10255 10250 10245 10239 10233 10225 10219 10213 10205 10196 10187 10178 10168 10160 10147 10139 10128 10116 10105 10093 10082 10070 10056 10043 10028 10010 9994 9978 9966 9954 9938 9926 9910 9899
10290 10285 10281 10275 10270 10264 10259 10253 10248 10242 10236 10230 10224 10219 10211 10202 10195 10188 10178 10169 10158 10147 10138 10127 10114 10104 10094 10083 10071 10059 10045 10033 10019 10003 9985 9968 9952 9939 9930 9915 9902 9890 9877
10283 10277 10271 10265 10259 10252 10246 10240 10234 10227 10220 10214 10207 10202 10196 10185 10176 10166 10157 10147 10136 10125 10116 10106 10093 10081 10071 10059 10049 10036 10023 10010 9995 9979 9961 9943 9929 9920 9906 9893 9882 9870 9856
10272 10266 10260 10253 10246 10239 10233 10226 10220 10212 10205 10198 10190 10183 10177 10169 10157 10146 10135 10125 10115 10105 10095 10086 10073 10061 10050 10038 10027 10015 10001 9988 9972 9958 9940 9922 9909 9899 9887 9873 9861 9848 9834
10261 10255 10249 10242 10234 10226 10218 10211 10204 10197 10190 10182 10173 10165 10158 10151 10141 10129 10118 10106 10095 10084 10073 10064 10053 10041 10029 10017 10006 9994 9982 9967 9953 9938 9922 9905 9891 9880 9868 9855 9842 9829 9814
10249 10243 10237 10228 10220 10212 10204 10196 10189 10181 10174 10166 10157 10149 10140 10131 10121 10110 10100 10089 10079 10066 10054 10044 10033 10023 10011 9998 9985 9973 9960 9946 9931 9916 9902 9888 9874 9862 9850 9837 9824 9811 9797
10237 10229 10221 10213 10205 10197 10189 10181 10173 10165 10157 10149 10142 10134 10123 10112 10101 10091 10081 10070 10059 10047 10036 10026 10015 10004 9991 9978 9965 9953 9940 9925 9910 9898 9885 9872 9859 9848 9837 9824 9807 9791 9776
10224 10215 10207 10199 10190 10181 10173 10165 10157 10148 10140 10132 10124 10115 10104 10094 10084 10074 10064 10052 10041 10030 10020 10009 9997 9985 9972 9959 9946 9933 9919 9906 9892 9878 9868 9855 9843 9831 9820 9808 9794 9778 9762